Вернуться в каталог

STARLINK-3400

АктивенСвязьVLEO
NORAD 51128·PAYLOAD·🇺🇸 United States

Запущен Jan 19, 2022 с Cape Canaveral Space Force Station

Loading…

Ближайшие Пролёты (ближайшие 24 часа)

TLE

СвежийSource: CelesTrak SupGP

Эпоха: Sep 15, 2026, 02:07 UTC

1 51128C 22005AA  26258.08868056  .00013716  00000+0  39270-3 0  2589
2 51128  53.1604 163.6026 0001132  79.4139   4.8542 15.35370968    13

Отслеживайте STARLINK-3400 в реальном времени с AllMySat

Download on the App Store